Olympia, Washington, United States (98501)
Lat: 47.04N, Lon: 122.9W
Wx Zone: WAZ504
Local Info
Past Weather Observations for Today

NOTE: This archive is for the closest National Weather Service station to Olympia. Information may differ from the station used for current weather conditions.

Time Weather Temperature Dewpoint Humidity Pressure Winds Precip Visibility
05:54
Partly Cloudy
48°F / 9°C 45°F / 7°C 87% 29.71 in
(1006 mb)
SW 6.9 mph
(SW 11 kph)
- 10SM
05:13
Partly Cloudy
50°F / 10°C 46°F / 8°C 88% 29.65 in
(1004 mb)
SSW 10.4 mph
(SSW 17 kph)
- 10SM
04:54
Overcast
52°F / 11°C 48°F / 9°C 88% 29.65 in
(1004 mb)
SSW 12.7 mph
(SSW 20 kph)
0.06 in
(1.52 mm)
9SM
04:36
Overcast
Light Rain
52°F / 11°C 48°F / 9°C 88% 29.65 in
(1004 mb)
SW 11.5 mph
(SW 19 kph)
0.05 in
(1.27 mm)
8SM
04:18
Overcast
Light Rain
52°F / 11°C 48°F / 9°C 88% 29.65 in
(1004 mb)
SSW 11.5 mph
(SSW 19 kph)
0.04 in
(1.02 mm)
3SM
04:12
Overcast
Light Rain
52°F / 11°C 48°F / 9°C 88% 29.62 in
(1003 mb)
S 10.4 mph
(S 17 kph)
0.03 in
(0.76 mm)
2 1/2SM
03:54
Overcast
Light Rain
52°F / 11°C 48°F / 9°C 88% 29.62 in
(1003 mb)
S 13.8 mph
(S 22 kph)
0.09 in
(2.29 mm)
6SM
03:46
Overcast
Light Rain
52°F / 11°C 50°F / 10°C 94% 29.62 in
(1003 mb)
S 16.1 mph
(S 26 kph)
0.09 in
(2.29 mm)
2 1/2SM
03:03
Overcast
Light Rain
52°F / 11°C 48°F / 9°C 88% 29.59 in
(1002 mb)
S 17.3 mph
(S 28 kph)
0.01 in
(0.25 mm)
4SM
02:57
Overcast
Rain
52°F / 11°C 48°F / 9°C 88% 29.62 in
(1003 mb)
S 15 mph
(S 24 kph)
0.00 in
(0.00 mm)
2 1/2SM
02:54
Overcast
Light Rain
52°F / 11°C 48°F / 9°C 88% 29.62 in
(1003 mb)
S 17.3 mph
(S 28 kph)
0.07 in
(1.78 mm)
3SM
02:49
Overcast
Light Rain
52°F / 11°C 48°F / 9°C 88% 29.59 in
(1002 mb)
S 19.6 mph
(S 32 kph)
0.06 in
(1.52 mm)
3SM
02:33
Overcast
Light Rain
52°F / 11°C 50°F / 10°C 94% 29.62 in
(1003 mb)
S 17.3 mph
(S 28 kph)
0.04 in
(1.02 mm)
2 1/2SM
02:05
Overcast
Light Rain
52°F / 11°C 50°F / 10°C 94% 29.62 in
(1003 mb)
S 13.8 mph
(S 22 kph)
0.00 in
(0.00 mm)
4SM
01:54
Overcast
Light Rain
52°F / 11°C 48°F / 9°C 88% 29.62 in
(1003 mb)
SSE 13.8 mph
(SSE 22 kph)
0.07 in
(1.78 mm)
5SM
01:39
Overcast
Light Rain
52°F / 11°C 48°F / 9°C 88% 29.62 in
(1003 mb)
S 16.1 mph
(S 26 kph)
0.07 in
(1.78 mm)
4SM
01:13
Overcast
Light Rain
52°F / 11°C 50°F / 10°C 94% 29.62 in
(1003 mb)
S 18.4 mph
(S 30 kph)
0.02 in
(0.51 mm)
2 1/2SM
01:04
Overcast
Light Rain
52°F / 11°C 50°F / 10°C 94% 29.62 in
(1003 mb)
SSE 15 mph
(SSE 24 kph)
0.01 in
(0.25 mm)
3SM
00:54
Overcast
Light Rain
52°F / 11°C 48°F / 9°C 88% 29.62 in
(1003 mb)
S 20.7 mph
(S 33 kph)
0.07 in
(1.78 mm)
2 1/2SM
00:34
Overcast
Light Rain
52°F / 11°C 48°F / 9°C 88% 29.62 in
(1003 mb)
S 17.3 mph
(S 28 kph)
0.04 in
(1.02 mm)
2 1/2SM
Time Weather Temperature Dewpoint Humidity Pressure Winds Precip Visibility


Weather for websites

WeatherForYou.com, LLC is not responsible for any damages or problems caused by this service. Current weather conditions are obtained from the closest station including government and personal stations which may have varying degrees of accuracy. Weather forecasts are derived from the NOAA NDFD. Like all things, this site belongs to Jesus Christ... He just trusts me to maintain it. If you have any questions or comments email webmaster@weatherforyou.com

Copyright © 2014, WeatherForYou.com LLC. All rights reserved.